Powrót do katalogu

STARLINK-37304

AktywnyŁącznośćSSO
NORAD 68683·PAYLOAD·🇺🇸 United States

Wystrzelony Apr 11, 2026 z Vandenberg Space Force Base

Loading…

Następne Przeloty (najbliższe 24 godziny)

TLE

ŚwieżeSource: CelesTrak SupGP

Epoka: Sep 14, 2026, 22:45 UTC

1 68683C 26077X   26257.94840278  .00061637  00000+0  19140-2 0  2573
2 68683  97.2849 127.9913 0001594  95.1636  16.7198 15.33395974    15

Śledź STARLINK-37304 w czasie rzeczywistym z AllMySat

Download on the App Store